Temperature
33 33 32 33 33 33 33 32 32 33 34 33 32 31 31 31 30 30 28 28 27 26 25 24 23 23 22 21 20 20 20 20 19 19 19 19 19 19 19 19 19 19 19 19
33 32 33 34 34 33 33 32 32 33 33 33 32 31 31 31 31 30 29 28 27 26 25 24 23 23 22 21 20 20 20 20 19 19 19 19 19 19 19 19 19 19 19 19
33 34 35 34 34 33 33 32 32 32 33 33 32 30 30 31 31 30 29 29 27 27 25 24 23 23 22 21 21 20 20 20 20 19 19 19 19 19 19 19 19 19 19 19
34 35 35 34 34 34 33 34 33 33 32 31 32 29 30 30 31 31 30 29 28 27 26 25 24 23 22 22 21 20 20 20 20 19 19 19 19 19 19 19 19 19 19 19
33 34 34 34 34 34 34 34 34 34 32 32 32 30 30 30 30 30 30 29 29 28 27 25 24 23 23 22 21 21 20 20 20 19 19 19 19 19 19 19 19 19 19 18
34 35 35 35 35 35 34 34 34 33 32 30 32 31 29 30 29 30 30 30 29 28 27 26 25 24 23 22 22 21 20 20 20 20 19 19 19 19 19 19 19 19 19 18
33 34 35 35 34 34 34 32 31 30 30 30 32 32 30 31 32 31 31 30 29 28 27 26 25 24 23 22 22 21 21 20 20 20 19 19 19 19 19 19 19 19 19 19
32 32 34 35 34 33 33 33 31 30 30 30 31 31 32 33 33 32 31 31 30 29 28 26 25 24 23 23 22 21 21 21 20 20 20 19 19 19 19 19 19 19 19 19
32 33 34 35 35 34 33 33 34 32 31 31 31 32 33 33 33 33 32 31 30 29 28 27 26 25 24 23 22 22 21 21 20 20 19 19 19 19 19 19 19 19 19 19
33 31 33 34 34 34 34 33 33 32 30 30 31 31 31 32 32 32 32 31 30 29 29 27 26 25 25 24 23 22 21 21 20 20 20 19 19 19 19 19 19 19 19 19
33 31 32 33 32 33 33 33 32 32 32 31 30 30 32 31 32 32 32 31 30 29 29 28 27 26 25 24 23 22 21 21 20 20 20 19 19 19 19 19 19 19 19 19
32 31 31 32 33 34 34 33 33 31 31 31 31 31 33 33 32 32 32 31 30 29 29 28 27 26 25 24 23 22 21 21 20 20 20 19 19 19 19 19 19 19 19 19
30 30 29 30 32 33 33 33 33 33 32 32 31 30 33 33 32 31 31 31 30 29 29 28 27 26 25 24 23 22 21 21 20 20 19 19 19 19 19 19 19 18 18 18
29 29 29 29 30 32 32 32 33 32 31 31 31 31 32 32 32 31 30 30 29 28 28 27 27 25 25 24 23 22 22 21 20 20 19 19 19 19 19 18 18 18 18 18
30 29 29 30 31 32 32 32 32 32 32 31 31 31 31 32 31 31 30 29 28 28 27 27 26 25 24 23 23 22 21 21 21 20 20 19 19 19 18 18 18 18 18 18
29 28 28 28 30 31 31 31 32 32 32 32 32 31 32 32 31 30 29 28 28 27 27 26 25 24 24 23 22 22 21 21 21 20 20 19 19 19 18 18 18 18 18 18
28 27 27 27 29 29 29 31 31 31 32 31 31 31 31 31 30 29 29 28 28 27 26 25 24 24 23 22 22 22 21 21 20 20 19 19 19 19 18 18 18 18 18 18
27 26 26 27 27 26 29 31 32 31 31 31 31 31 31 30 29 29 28 28 27 26 25 24 24 23 23 22 22 22 21 21 20 20 19 19 19 19 18 18 18 18 18 18
27 26 26 26 26 27 28 30 31 30 30 30 30 30 30 29 29 28 28 27 26 25 24 24 23 23 22 22 22 21 21 20 20 19 19 19 19 18 18 18 18 18 18 18
27 26 25 25 25 25 27 30 30 30 28 29 29 29 29 28 28 28 26 25 25 24 23 23 22 22 22 21 21 21 20 20 20 20 19 19 19 18 18 18 18 18 18 17
25 25 25 25 25 26 28 29 30 28 27 28 28 27 27 26 26 26 25 24 24 23 22 22 22 21 21 21 21 20 20 20 20 19 19 19 18 18 18 18 18 18 17 17
25 24 24 24 24 25 27 28 27 26 26 26 26 25 25 25 25 24 24 23 23 22 22 21 21 20 20 20 20 20 20 19 19 19 19 19 18 18 18 18 17 17 17 17
25 25 25 24 25 25 25 25 25 25 25 24 24 24 23 23 23 23 22 22 22 21 21 20 20 20 19 19 19 19 19 19 19 19 18 18 18 18 18 17 17 17 17 17
24 24 24 24 24 24 24 23 23 23 23 23 23 23 23 23 22 22 21 21 21 21 20 20 19 19 19 19 19 19 19 18 18 18 18 18 18 17 17 17 17 17 16 16
22 22 22 22 23 23 23 22 22 22 22 22 22 22 22 22 21 21 21 20 20 20 19 19 19 18 18 18 18 18 18 18 18 17 17 17 17 17 17 17 17 16 16 16
22 21 21 21 21 22 21 21 21 21 21 21 21 21 21 21 20 20 20 20 19 19 18 18 18 18 18 18 18 18 18 17 17 17 17 17 17 17 16 16 16 16 16 16
Wind_Speed
9 9 8 6 7 7 5 3 2 1 2 2 5 8 8 8 9 11 11 11 11 10 11 10 9 10 9 8 7 6 5 5 3 3 2 2 2 2 3 3 4 4 4 4
10 11 11 9 7 6 4 4 3 2 3 2 3 7 8 8 9 9 10 11 11 11 12 10 9 9 9 8 7 6 5 5 3 3 1 1 1 1 3 3 4 3 4 3
14 11 9 8 7 6 5 5 4 4 2 3 2 3 7 9 8 10 10 11 12 12 13 12 10 9 9 9 8 7 6 5 4 3 2 2 2 1 2 4 3 2 3 3
14 11 8 7 8 8 6 5 6 7 6 5 5 4 6 8 10 11 11 12 13 13 14 13 12 10 9 9 9 7 7 5 5 3 2 2 2 2 2 2 3 3 2 2
12 11 10 9 9 8 6 7 9 10 7 6 6 4 5 7 9 10 11 12 12 13 14 14 13 11 10 10 9 8 7 6 5 3 3 2 2 2 2 3 4 3 2 2
14 12 11 10 8 8 6 8 10 10 7 8 7 4 2 5 8 9 10 12 12 13 14 14 13 11 10 10 10 10 9 7 6 4 3 2 2 2 2 2 3 2 2 2
15 15 13 10 10 8 8 8 6 6 6 6 5 3 4 6 9 10 11 12 13 13 13 13 13 13 11 11 10 10 10 8 7 6 4 3 3 2 2 1 2 1 2 2
14 13 13 10 10 9 10 10 8 7 5 4 5 3 5 8 8 9 10 10 13 14 14 14 13 13 12 11 10 10 11 9 8 7 5 4 4 2 2 2 1 1 1 2
10 9 8 9 9 10 10 10 11 10 9 6 4 4 6 8 8 10 10 10 11 13 14 14 14 14 14 13 11 11 11 10 8 8 6 5 4 3 2 2 2 1 1 2
11 9 8 8 9 12 10 9 7 8 6 6 4 4 4 6 8 9 9 9 9 11 13 14 14 13 12 12 11 11 11 10 9 8 7 7 5 4 3 3 2 1 1 2
12 11 11 10 11 11 11 11 9 8 8 7 5 1 3 4 5 8 10 10 10 10 11 12 12 12 12 11 12 11 11 10 9 8 7 5 6 5 4 3 3 2 2 2
9 10 11 11 11 11 12 12 11 9 7 8 7 3 3 4 5 5 6 7 8 9 10 11 12 12 11 11 11 10 10 11 10 8 7 6 6 5 5 4 3 3 2 2
5 8 11 12 11 13 12 11 13 12 10 9 9 4 3 4 6 6 5 7 7 6 8 10 11 11 10 10 9 10 10 10 10 9 9 7 6 5 4 4 3 3 3 2
4 9 13 13 11 9 12 12 13 13 10 9 9 6 4 3 4 6 6 7 7 7 6 8 9 9 9 8 8 8 9 9 9 8 8 7 6 5 5 4 4 4 3 3
7 12 14 15 16 15 13 13 13 14 13 12 10 7 4 4 3 4 6 6 5 6 6 6 8 8 8 9 8 8 8 7 7 8 8 7 6 5 5 4 4 4 3 4
8 10 13 16 17 17 16 15 14 14 13 14 12 9 4 2 2 4 6 7 7 6 6 6 7 7 7 8 8 8 8 8 7 7 7 6 6 6 5 5 4 4 4 3
9 10 13 15 15 16 18 16 15 14 13 11 10 6 4 2 0 1 3 4 6 7 6 5 6 6 6 6 7 8 8 8 8 7 7 7 7 6 6 6 5 5 4 4
10 9 9 13 14 18 13 11 12 12 10 9 7 6 4 2 1 1 2 3 4 4 5 5 5 6 6 6 7 7 8 8 8 8 7 7 7 6 6 5 5 5 4 3
12 10 11 12 16 16 13 12 11 11 9 7 7 7 5 3 2 2 2 3 4 4 4 4 4 5 5 6 6 6 8 8 8 9 8 8 7 7 6 5 5 5 4 4
14 11 12 13 15 16 11 10 9 10 10 6 4 4 3 3 5 1 3 4 5 5 5 4 4 4 5 5 5 6 7 8 8 8 8 8 8 7 7 6 5 4 4 4
13 14 16 17 18 13 10 10 9 11 6 1 1 1 1 2 2 2 3 4 4 5 5 4 3 3 3 4 5 5 6 6 6 6 7 8 8 8 7 6 5 5 4 4
13 12 14 15 18 14 7 8 8 2 4 3 4 4 2 2 3 3 4 4 4 4 4 4 3 3 3 3 4 5 4 4 4 5 6 8 8 8 8 6 6 6 6 5
12 9 8 9 9 2 3 2 3 2 3 3 2 3 2 2 2 3 4 4 3 4 4 3 3 3 3 2 3 4 3 4 4 5 5 6 6 6 5 6 6 6 5 5
8 7 9 7 6 3 2 2 2 1 1 2 1 1 1 1 1 1 3 2 2 3 3 3 3 2 2 2 2 3 3 3 4 5 5 5 5 5 5 4 5 5 5 5
9 8 8 8 6 6 5 3 3 3 1 1 1 1 1 0 1 1 2 2 2 2 2 2 2 2 2 2 3 3 4 4 4 5 4 5 5 5 4 4 2 4 2 3
9 9 9 8 6 6 5 3 4 3 3 3 2 3 2 1 0 1 1 1 2 2 2 2 2 2 2 2 2 3 3 4 5 4 4 4 5 5 5 4 3 2 2 4
Wind_Direction
236 245 249 239 234 247 257 245 233 202 165 152 132 141 157 166 166 157 161 162 156 154 146 143 144 138 133 127 124 121 113 110 117 111 114 112 115 112 112 116 120 129 128 124
234 238 245 248 241 248 260 272 258 241 168 208 148 145 157 174 174 163 161 159 160 157 150 149 153 148 142 137 135 129 128 127 129 121 121 121 112 118 113 101 105 121 123 130
239 243 240 243 250 260 250 267 265 254 216 231 180 162 169 178 173 165 165 163 166 165 158 158 163 159 153 149 150 149 137 137 133 129 135 103 98 68 92 107 114 113 121 128
249 253 247 245 255 264 257 255 260 257 251 238 216 208 191 185 173 172 172 172 170 168 164 164 167 168 163 157 154 138 138 138 136 139 132 134 125 102 91 107 116 116 115 112
249 250 246 242 247 259 270 266 260 262 255 258 230 235 193 170 175 180 179 175 171 170 167 166 168 168 167 163 157 149 142 138 136 145 142 138 107 116 110 104 117 125 124 126
256 251 250 250 248 250 264 271 264 262 259 255 237 223 190 169 185 183 187 178 173 169 166 165 165 163 167 165 161 157 148 146 150 156 151 152 135 93 91 88 103 142 145 150
242 240 237 242 245 240 246 256 261 256 243 251 252 205 168 167 171 173 177 174 172 168 165 166 165 164 167 168 166 159 151 154 160 165 164 163 150 135 137 155 143 184 147 146
235 230 223 221 232 245 244 249 259 274 265 259 254 197 152 147 151 156 156 162 168 169 167 168 167 166 169 170 166 161 156 161 167 171 169 167 158 178 176 185 165 170 135 122
254 239 219 217 225 243 241 253 270 273 270 267 240 175 155 157 156 147 150 162 166 168 169 170 170 173 174 173 169 165 159 162 169 174 169 171 178 198 177 155 195 161 130 147
267 267 244 224 226 230 245 258 267 270 279 274 262 216 180 159 155 149 151 155 163 165 168 170 171 173 173 171 165 165 162 164 168 172 177 179 180 184 178 171 168 165 132 100
254 262 251 235 230 236 235 246 257 272 277 283 277 268 139 156 156 152 154 160 167 168 168 168 167 168 166 166 168 168 163 164 170 174 176 171 169 179 181 175 166 170 161 142
250 262 262 245 239 242 247 247 249 251 260 270 277 253 144 145 131 134 147 153 154 164 168 163 160 162 165 168 168 166 167 170 172 171 168 170 168 174 179 172 160 159 160 151
269 263 261 247 234 227 235 242 255 258 255 254 260 238 174 139 128 135 152 145 145 155 159 156 155 159 161 162 162 166 169 170 170 170 171 167 169 172 176 167 160 160 156 158
260 255 258 257 260 255 238 244 250 261 263 261 257 227 197 157 145 144 135 130 145 149 159 160 154 154 155 156 157 161 168 169 167 164 166 165 170 172 172 167 160 160 152 157
248 252 260 268 277 273 259 251 249 252 260 267 270 264 233 163 151 132 124 130 145 149 171 158 152 150 154 156 155 158 163 163 164 161 164 164 166 165 160 158 163 159 158 168
232 256 266 267 266 268 265 257 253 253 254 259 263 264 267 120 142 130 133 144 153 162 168 154 146 145 150 154 160 163 163 162 158 160 163 161 162 161 164 162 162 159 163 169
250 250 260 261 262 265 259 255 252 253 254 257 256 257 269 251 141 153 138 149 158 161 153 156 150 150 152 157 157 161 164 162 160 161 165 164 163 162 167 173 168 171 172 174
248 257 257 260 261 253 258 263 261 259 259 257 257 267 285 280 176 198 137 140 142 148 147 144 154 155 161 163 165 166 169 167 165 167 170 166 166 167 170 172 171 172 170 178
236 240 249 254 254 250 253 260 258 256 257 258 257 264 266 292 240 191 116 120 128 129 128 134 150 157 163 168 167 165 172 171 171 174 174 172 172 168 173 175 177 177 175 181
227 226 240 248 252 253 250 254 255 255 249 254 262 277 278 286 261 204 78 86 110 110 115 126 143 148 152 163 166 172 175 176 178 177 175 171 170 172 178 179 182 182 181 191
224 222 230 244 251 254 267 269 264 246 246 317 242 310 295 297 329 45 82 87 91 104 119 123 133 138 146 156 156 175 179 176 179 175 171 170 173 178 179 178 180 182 189 195
236 231 230 238 247 249 282 264 256 295 47 56 57 49 37 53 64 76 88 94 109 117 122 127 128 132 140 156 161 173 179 171 169 170 172 174 177 189 185 177 184 188 193 196
243 251 250 245 246 292 333 341 23 46 63 38 56 67 25 51 79 102 97 96 117 125 128 127 122 122 127 143 157 167 165 163 169 166 171 174 177 178 173 178 184 189 194 202
253 266 264 258 247 261 306 334 347 12 24 13 15 41 356 38 43 109 116 116 115 116 122 113 120 136 142 153 165 160 159 168 175 172 170 171 171 174 176 186 183 186 192 200
281 278 264 261 252 259 252 273 303 304 292 322 314 249 270 65 52 40 117 131 137 126 125 126 138 151 158 164 172 172 171 173 176 167 164 169 171 167 168 172 178 183 177 187
269 266 260 263 269 274 271 288 294 296 287 277 263 253 256 210 247 287 186 159 161 157 145 141 157 173 169 183 183 168 170 170 172 173 179 185 180 174 177 174 170 88 140 147
Height
1470 1472 1473 1470 1467 1468 1468 1472 1476 1471 1464 1468 1474 1479 1482 1483 1485 1489 1494 1498 1502 1506 1509 1512 1514 1516 1517 1518 1519 1520 1521 1521 1522 1522 1523 1524 1524 1525 1526 1526 1527 1528 1528 1529
1470 1473 1465 1462 1462 1464 1468 1474 1476 1469 1464 1467 1473 1477 1479 1480 1482 1486 1490 1495 1500 1504 1508 1511 1514 1516 1517 1518 1519 1520 1521 1522 1523 1523 1524 1525 1526 1526 1527 1527 1527 1528 1529 1530
1469 1464 1458 1460 1462 1466 1467 1472 1472 1472 1467 1467 1475 1483 1481 1478 1481 1484 1488 1492 1497 1502 1506 1510 1513 1515 1517 1518 1519 1520 1521 1522 1523 1524 1525 1526 1526 1527 1528 1528 1528 1529 1530 1530
1462 1457 1457 1460 1463 1464 1471 1462 1464 1466 1472 1478 1476 1497 1484 1480 1479 1482 1486 1490 1494 1499 1503 1508 1511 1514 1516 1517 1519 1520 1521 1522 1523 1524 1525 1526 1527 1528 1529 1529 1529 1530 1530 1531
1462 1456 1458 1462 1461 1460 1463 1458 1460 1462 1469 1476 1475 1486 1485 1479 1482 1481 1483 1486 1491 1496 1500 1505 1509 1512 1515 1517 1518 1520 1521 1522 1523 1524 1526 1527 1528 1529 1530 1530 1530 1530 1531 1531
1457 1454 1454 1455 1454 1456 1457 1460 1461 1462 1469 1489 1475 1482 1491 1478 1478 1478 1481 1483 1488 1492 1497 1502 1507 1510 1513 1516 1518 1519 1520 1521 1523 1524 1526 1527 1528 1529 1530 1530 1530 1531 1532 1532
1462 1454 1451 1452 1457 1457 1459 1472 1486 1491 1493 1491 1468 1474 1482 1467 1467 1471 1475 1479 1484 1490 1495 1500 1504 1508 1511 1514 1516 1518 1519 1521 1522 1524 1526 1527 1528 1529 1530 1531 1531 1532 1532 1533
1467 1465 1450 1450 1456 1461 1460 1466 1488 1501 1499 1489 1473 1477 1469 1459 1463 1467 1471 1476 1481 1487 1492 1497 1501 1505 1509 1512 1515 1517 1518 1520 1522 1523 1525 1527 1528 1529 1530 1531 1531 1532 1533 1533
1461 1461 1446 1447 1450 1454 1462 1464 1459 1472 1479 1486 1479 1471 1462 1458 1460 1464 1470 1475 1479 1484 1489 1494 1499 1503 1506 1510 1513 1515 1516 1518 1520 1522 1524 1526 1528 1529 1530 1531 1532 1532 1533 1533
1454 1463 1451 1447 1450 1451 1454 1456 1464 1474 1490 1495 1486 1478 1474 1464 1462 1464 1468 1473 1477 1482 1487 1491 1496 1500 1504 1507 1510 1513 1515 1517 1519 1521 1523 1525 1527 1528 1529 1530 1531 1532 1532 1533
1453 1464 1459 1453 1456 1458 1458 1460 1463 1466 1470 1488 1495 1486 1459 1461 1460 1462 1466 1470 1475 1480 1484 1489 1494 1498 1502 1505 1508 1511 1513 1515 1518 1520 1522 1524 1525 1527 1528 1529 1530 1531 1532 1532
1454 1460 1465 1457 1447 1447 1451 1456 1460 1475 1477 1473 1482 1482 1453 1456 1459 1462 1465 1470 1474 1478 1483 1486 1491 1496 1500 1503 1506 1509 1511 1514 1516 1518 1520 1522 1524 1525 1527 1528 1529 1530 1530 1531
1458 1465 1476 1470 1461 1452 1453 1452 1453 1455 1462 1471 1480 1480 1454 1456 1460 1463 1467 1470 1475 1479 1482 1485 1490 1494 1498 1501 1504 1507 1510 1512 1514 1517 1519 1520 1522 1524 1525 1526 1528 1528 1529 1530
1461 1466 1473 1477 1466 1455 1457 1455 1453 1458 1468 1471 1470 1469 1459 1458 1460 1464 1467 1471 1475 1479 1482 1484 1488 1492 1496 1499 1502 1505 1508 1510 1513 1515 1516 1518 1520 1522 1523 1525 1526 1527 1528 1529
1460 1467 1464 1461 1455 1452 1453 1454 1454 1458 1461 1467 1465 1463 1460 1458 1461 1464 1467 1471 1475 1479 1482 1485 1487 1491 1494 1498 1500 1503 1506 1508 1511 1512 1514 1516 1518 1520 1522 1523 1524 1526 1527 1528
1461 1467 1467 1466 1458 1455 1455 1452 1452 1454 1455 1458 1458 1460 1455 1457 1461 1464 1468 1471 1475 1479 1482 1484 1487 1489 1492 1495 1498 1501 1504 1506 1508 1510 1512 1515 1517 1518 1520 1521 1523 1524 1525 1526
1462 1468 1473 1472 1462 1460 1464 1452 1451 1452 1450 1454 1460 1459 1456 1459 1463 1465 1468 1471 1474 1478 1480 1483 1485 1488 1490 1493 1496 1498 1501 1504 1506 1508 1510 1513 1514 1516 1517 1519 1521 1522 1523 1524
1465 1470 1472 1472 1472 1482 1460 1445 1445 1448 1450 1450 1453 1454 1456 1460 1463 1466 1468 1471 1474 1477 1479 1482 1484 1487 1489 1492 1494 1497 1499 1502 1504 1506 1508 1510 1512 1514 1515 1517 1519 1520 1521 1523
1460 1467 1472 1473 1475 1468 1456 1448 1446 1450 1453 1451 1453 1455 1457 1459 1462 1465 1468 1471 1473 1476 1478 1481 1483 1485 1487 1490 1492 1494 1497 1499 1501 1503 1505 1507 1509 1511 1513 1515 1516 1518 1519 1520
1457 1461 1471 1472 1477 1475 1459 1447 1446 1449 1458 1453 1454 1456 1458 1460 1463 1467 1469 1470 1473 1475 1478 1480 1482 1484 1486 1488 1490 1492 1493 1496 1498 1500 1502 1504 1507 1509 1510 1512 1514 1516 1517 1518
1459 1463 1468 1470 1471 1461 1450 1446 1447 1460 1460 1454 1455 1458 1461 1463 1466 1468 1469 1471 1473 1475 1477 1479 1481 1483 1484 1486 1487 1489 1490 1492 1495 1498 1500 1502 1504 1506 1508 1510 1512 1514 1515 1516
1457 1461 1464 1465 1469 1465 1450 1448 1452 1456 1455 1456 1458 1460 1463 1465 1466 1468 1470 1472 1474 1475 1477 1479 1480 1482 1483 1484 1485 1487 1488 1490 1493 1495 1497 1499 1501 1504 1506 1508 1510 1511 1513 1513
1451 1454 1455 1457 1459 1455 1453 1454 1455 1456 1457 1459 1460 1462 1464 1465 1467 1469 1471 1473 1474 1476 1477 1479 1480 1481 1482 1483 1484 1485 1487 1489 1491 1493 1495 1496 1499 1500 1503 1505 1507 1509 1510 1511
1449 1450 1452 1454 1452 1453 1455 1456 1457 1458 1459 1460 1462 1463 1464 1466 1467 1469 1471 1473 1474 1476 1477 1478 1479 1480 1481 1482 1483 1484 1485 1486 1488 1490 1492 1494 1496 1498 1500 1502 1503 1505 1507 1508
1454 1453 1453 1454 1453 1454 1455 1457 1458 1459 1460 1461 1462 1464 1465 1466 1468 1469 1471 1473 1474 1476 1477 1477 1478 1479 1480 1481 1481 1482 1483 1484 1486 1488 1489 1491 1493 1495 1497 1499 1501 1502 1503 1505
1453 1454 1455 1455 1455 1455 1456 1457 1458 1459 1460 1461 1462 1463 1464 1465 1467 1469 1470 1472 1473 1474 1475 1476 1477 1478 1478 1479 1480 1480 1481 1482 1484 1485 1487 1489 1491 1493 1494 1496 1498 1499 1501 1502